This demonstration page uses our WeatherBlox Daily Observations layout. Learn more.

Left ArrowRight Arrow

Hourly Observations for January 30, 2019

Temp ( °F °C ) Dew Point ( °F °C ) Humidity (%) Winds ( mph kmh ) Pressure ( in mb ) Visibility ( mi km ) Precip ( " mm )
12:57 am 00:57 Clear 2 -16.7 -5 -20.6 72 72 N 12 19 30.40 1029 10 16 0.00 0.00
1:57 am 01:57 Clear 1 -17.2 -7 -21.7 68 68 NNE 12 19 30.39 1029 10 16 0.00 0.00
2:57 am 02:57 Clear -1 -18.3 -8 -22.2 72 72 NNE 8 13 30.39 1029 10 16 0.00 0.00
3:57 am 03:57 Partly Cloudy -1 -18.3 -7 -21.7 75 75 ENE 6 9 30.37 1028 10 16 0.00 0.00
4:57 am 04:57 Cloudy -2 -18.9 -8 -22.2 75 75 E 5 7 30.36 1028 10 16 0.00 0.00
5:57 am 05:57 Cloudy -1 -18.3 -7 -21.7 75 75 E 6 9 30.35 1028 10 16 0.00 0.00
6:57 am 06:57 Cloudy 0 -17.8 -7 -21.7 72 72 E 6 9 30.35 1028 10 16 0.00 0.00
9:57 am 09:57 Partly Cloudy 4 -15.6 -3 -19.4 73 73 S 13 20 30.34 1027 10 16 0.00 0.00
10:57 am 10:57 Mostly Cloudy 7 -13.9 -2 -18.9 66 66 S 14 22 30.33 1027 10 16 0.00 0.00
11:57 am 11:57 Mostly Cloudy 10 -12.2 -1 -18.3 61 61 S 14 22 30.29 1026 10 16 0.00 0.00
12:57 pm 12:57 Mostly Cloudy 12 -11.1 0 -17.8 58 58 S 15 24 30.26 1025 10 16 0.00 0.00
1:57 pm 13:57 Cloudy 14 -10 2 -16.7 58 58 SSW 16 26 30.22 1023 10 16 0.00 0.00
3:57 pm 15:57 Partly Cloudy 17 -8.3 4 -15.6 56 56 S 16 26 30.19 1022 10 16 0.00 0.00
4:57 pm 16:57 Mostly Sunny 16 -8.9 4 -15.6 59 59 S 15 24 30.18 1022 10 16 0.00 0.00
6:57 pm 18:57 Clear 14 -10 4 -15.6 64 64 SSE 17 28 30.16 1022 10 16 0.00 0.00
7:57 pm 19:57 Clear 12 -11.1 3 -16.1 67 67 SSE 15 24 30.17 1022 10 16 0.00 0.00
8:57 pm 20:57 Clear 10 -12.2 1 -17.2 67 67 SSE 18 30 30.16 1021 10 16 0.00 0.00
9:57 pm 21:57 Clear 9 -12.8 1 -17.2 70 70 SSE 17 28 30.15 1021 10 16 0.00 0.00
10:57 pm 22:57 Cloudy 10 -12.2 2 -16.7 69 69 SSE 13 20 30.15 1021 10 16 0.00 0.00
11:57 pm 23:57 Mostly Cloudy 10 -12.2 2 -16.7 69 69 SSE 12 19 30.15 1021 10 16 0.00 0.00

Powered by AerisWeather